Year,Month,Day,Hour,Minute,Value (Times are PST for temperature in C)
2017,02,17,00,00,0.20
2017,02,17,00,01,0.20
2017,02,17,00,02,0.10
2017,02,17,00,03,0.10
2017,02,17,00,04,0.10
2017,02,17,00,05,0.20
2017,02,17,00,06,0.20
2017,02,17,00,07,0.20
2017,02,17,00,08,0.20
2017,02,17,00,09,0.20
2017,02,17,00,10,0.20
2017,02,17,00,11,0.30
2017,02,17,00,12,0.30
2017,02,17,00,13,0.30
2017,02,17,00,14,0.30
2017,02,17,00,15,0.30
2017,02,17,00,16,0.30
2017,02,17,00,17,0.30
2017,02,17,00,18,0.30
2017,02,17,00,19,0.30
2017,02,17,00,20,0.30
2017,02,17,00,21,0.30
2017,02,17,00,22,0.20
2017,02,17,00,23,0.20
2017,02,17,00,24,0.20
2017,02,17,00,25,0.20
2017,02,17,00,26,0.20
2017,02,17,00,27,0.20
2017,02,17,00,28,0.20
2017,02,17,00,29,0.20
2017,02,17,00,30,0.30
2017,02,17,00,31,0.30
2017,02,17,00,32,0.30
2017,02,17,00,33,0.30
2017,02,17,00,34,0.30
2017,02,17,00,35,0.40
2017,02,17,00,36,0.40
2017,02,17,00,37,0.40
2017,02,17,00,38,0.40
2017,02,17,00,39,0.40
2017,02,17,00,40,0.40
2017,02,17,00,41,0.50
2017,02,17,00,42,0.50
2017,02,17,00,43,0.50
2017,02,17,00,44,0.50
2017,02,17,00,45,0.50
2017,02,17,00,46,0.50
2017,02,17,00,47,0.50
2017,02,17,00,48,0.50
2017,02,17,00,49,0.50
2017,02,17,00,50,0.50
2017,02,17,00,51,0.40
2017,02,17,00,52,0.40
2017,02,17,00,53,0.40
2017,02,17,00,54,0.30
2017,02,17,00,55,0.30
2017,02,17,00,56,0.30
2017,02,17,00,57,0.30
2017,02,17,00,58,0.30
2017,02,17,00,59,0.30
2017,02,17,01,00,0.30
2017,02,17,01,01,0.30
2017,02,17,01,02,0.30
2017,02,17,01,03,0.30
2017,02,17,01,04,0.40
2017,02,17,01,05,0.40
2017,02,17,01,06,0.40
2017,02,17,01,07,0.40
2017,02,17,01,08,0.40
2017,02,17,01,09,0.40
2017,02,17,01,10,0.40
2017,02,17,01,11,0.40
2017,02,17,01,12,0.40
2017,02,17,01,13,0.40
2017,02,17,01,14,0.40
2017,02,17,01,15,0.30
2017,02,17,01,16,0.30
2017,02,17,01,17,0.30
2017,02,17,01,18,0.30
2017,02,17,01,19,0.30
2017,02,17,01,20,0.40
2017,02,17,01,21,0.40
2017,02,17,01,22,0.30
2017,02,17,01,23,0.30
2017,02,17,01,24,0.30
2017,02,17,01,25,0.30
2017,02,17,01,26,0.30
2017,02,17,01,27,0.30
2017,02,17,01,28,0.30
2017,02,17,01,29,0.30
2017,02,17,01,30,0.30
2017,02,17,01,31,0.30
2017,02,17,01,32,0.30
2017,02,17,01,33,0.40
2017,02,17,01,34,0.40
2017,02,17,01,35,0.50
2017,02,17,01,36,0.50
2017,02,17,01,37,0.60
2017,02,17,01,38,0.70
2017,02,17,01,39,0.70
2017,02,17,01,40,0.80
2017,02,17,01,41,0.80
2017,02,17,01,42,0.90
2017,02,17,01,43,0.90
2017,02,17,01,44,0.90
2017,02,17,01,45,1.00
2017,02,17,01,46,1.00
2017,02,17,01,47,1.10
2017,02,17,01,48,1.10
2017,02,17,01,49,1.20
2017,02,17,01,50,1.30
2017,02,17,01,51,1.40
2017,02,17,01,52,1.40
2017,02,17,01,53,1.50
2017,02,17,01,54,1.60
2017,02,17,01,55,1.70
2017,02,17,01,56,1.80
2017,02,17,01,57,1.80
2017,02,17,01,58,1.90
2017,02,17,01,59,2.00
2017,02,17,02,00,2.00
2017,02,17,02,01,2.10
2017,02,17,02,02,2.10
2017,02,17,02,03,2.10
2017,02,17,02,04,2.20
2017,02,17,02,05,2.20
2017,02,17,02,06,2.30
2017,02,17,02,07,2.30
2017,02,17,02,08,2.40
2017,02,17,02,09,2.50
2017,02,17,02,10,2.50
2017,02,17,02,11,2.60
2017,02,17,02,12,2.70
2017,02,17,02,13,2.70
2017,02,17,02,14,2.80
2017,02,17,02,15,2.80
2017,02,17,02,16,2.80
2017,02,17,02,17,2.80
2017,02,17,02,18,2.90
2017,02,17,02,19,2.90
2017,02,17,02,20,2.90
2017,02,17,02,21,3.00
2017,02,17,02,22,3.00
2017,02,17,02,23,3.00
2017,02,17,02,24,3.10
2017,02,17,02,25,3.10
2017,02,17,02,26,3.20
2017,02,17,02,27,3.20
2017,02,17,02,28,3.30
2017,02,17,02,29,3.30
2017,02,17,02,30,3.40
2017,02,17,02,31,3.50
2017,02,17,02,32,3.50
2017,02,17,02,33,3.60
2017,02,17,02,34,3.70
2017,02,17,02,35,3.70
2017,02,17,02,36,3.80
2017,02,17,02,37,3.80
2017,02,17,02,38,3.90
2017,02,17,02,39,4.00
2017,02,17,02,40,4.00
2017,02,17,02,41,4.10
2017,02,17,02,42,4.10
2017,02,17,02,43,4.20
2017,02,17,02,44,4.30
2017,02,17,02,45,4.30
2017,02,17,02,46,4.40
2017,02,17,02,47,4.50
2017,02,17,02,48,4.50
2017,02,17,02,49,4.60
2017,02,17,02,50,4.70
2017,02,17,02,51,4.70
2017,02,17,02,52,4.70
2017,02,17,02,53,4.80
2017,02,17,02,54,4.80
2017,02,17,02,55,4.90
2017,02,17,02,56,5.00
2017,02,17,02,57,5.10
2017,02,17,02,58,5.20
2017,02,17,02,59,5.30
2017,02,17,03,00,5.40
2017,02,17,03,01,5.50
2017,02,17,03,02,5.60
2017,02,17,03,03,5.70
2017,02,17,03,04,5.80
2017,02,17,03,05,5.90
2017,02,17,03,06,5.90
2017,02,17,03,07,6.00
2017,02,17,03,08,6.10
2017,02,17,03,09,6.10
2017,02,17,03,10,6.20
2017,02,17,03,11,6.20
2017,02,17,03,12,6.30
2017,02,17,03,13,6.40
2017,02,17,03,14,6.40
2017,02,17,03,15,6.50
2017,02,17,03,16,6.50
2017,02,17,03,17,6.60
2017,02,17,03,18,6.60
2017,02,17,03,19,6.70
2017,02,17,03,20,6.70
2017,02,17,03,21,6.70
2017,02,17,03,22,6.70
2017,02,17,03,23,6.70
2017,02,17,03,24,6.70
2017,02,17,03,25,6.80
2017,02,17,03,26,6.80
2017,02,17,03,27,6.80
2017,02,17,03,28,6.90
2017,02,17,03,29,6.90
2017,02,17,03,30,6.90
2017,02,17,03,31,7.00
2017,02,17,03,32,7.00
2017,02,17,03,33,7.00
2017,02,17,03,34,7.00
2017,02,17,03,35,7.10
2017,02,17,03,36,7.10
2017,02,17,03,37,7.10
2017,02,17,03,38,7.10
2017,02,17,03,39,7.10
2017,02,17,03,40,7.10
2017,02,17,03,41,7.10
2017,02,17,03,42,7.20
2017,02,17,03,43,7.20
2017,02,17,03,44,7.20
2017,02,17,03,45,7.20
2017,02,17,03,46,7.20
2017,02,17,03,47,7.20
2017,02,17,03,48,7.20
2017,02,17,03,49,7.10
2017,02,17,03,50,7.00
2017,02,17,03,51,7.00
2017,02,17,03,52,7.00
2017,02,17,03,53,6.90
2017,02,17,03,54,6.90
2017,02,17,03,55,7.00
2017,02,17,03,56,7.00
2017,02,17,03,57,7.00
2017,02,17,03,58,6.90
2017,02,17,03,59,6.90
2017,02,17,04,00,6.80
2017,02,17,04,01,6.80
2017,02,17,04,02,6.70
2017,02,17,04,03,6.70
2017,02,17,04,04,6.60
2017,02,17,04,05,6.60
2017,02,17,04,06,6.50
2017,02,17,04,07,6.40
2017,02,17,04,08,6.40
2017,02,17,04,09,6.40
2017,02,17,04,10,6.40
2017,02,17,04,11,6.40
2017,02,17,04,12,6.40
2017,02,17,04,13,6.50
2017,02,17,04,14,6.60
2017,02,17,04,15,6.60
2017,02,17,04,16,6.60
2017,02,17,04,17,6.60
2017,02,17,04,18,6.60
2017,02,17,04,19,6.70
2017,02,17,04,20,6.70
2017,02,17,04,21,6.70
2017,02,17,04,22,6.70
2017,02,17,04,23,6.70
2017,02,17,04,24,6.70
2017,02,17,04,25,6.70
2017,02,17,04,26,6.70
2017,02,17,04,27,6.80
2017,02,17,04,28,6.80
2017,02,17,04,29,6.80
2017,02,17,04,30,6.80
2017,02,17,04,31,6.80
2017,02,17,04,32,6.80
2017,02,17,04,33,6.80
2017,02,17,04,34,6.80
2017,02,17,04,35,6.90
2017,02,17,04,36,6.90
2017,02,17,04,37,6.90
2017,02,17,04,38,6.90
2017,02,17,04,39,7.00
2017,02,17,04,40,7.00
2017,02,17,04,41,7.10
2017,02,17,04,42,7.10
2017,02,17,04,43,7.10
2017,02,17,04,44,7.20
2017,02,17,04,45,7.20
2017,02,17,04,46,7.20
2017,02,17,04,47,7.20
2017,02,17,04,48,7.30
2017,02,17,04,49,7.30
2017,02,17,04,50,7.40
2017,02,17,04,51,7.40
2017,02,17,04,52,7.50
2017,02,17,04,53,7.50
2017,02,17,04,54,7.60
2017,02,17,04,55,7.60
2017,02,17,04,56,7.60
2017,02,17,04,57,7.60
2017,02,17,04,58,7.60
2017,02,17,04,59,7.60
2017,02,17,05,00,7.60
2017,02,17,05,01,7.70
2017,02,17,05,02,7.70
2017,02,17,05,03,7.80
2017,02,17,05,04,7.80
2017,02,17,05,05,7.80
2017,02,17,05,06,7.90
2017,02,17,05,07,7.90
2017,02,17,05,08,7.80
2017,02,17,05,09,7.80
2017,02,17,05,10,7.80
2017,02,17,05,11,7.80
2017,02,17,05,12,7.80
2017,02,17,05,13,7.80
2017,02,17,05,14,7.90
2017,02,17,05,15,7.90
2017,02,17,05,16,7.90
2017,02,17,05,17,7.90
2017,02,17,05,18,7.90
2017,02,17,05,19,7.90
2017,02,17,05,20,7.90
2017,02,17,05,21,7.90
2017,02,17,05,22,7.90
2017,02,17,05,23,8.00
2017,02,17,05,24,8.00
2017,02,17,05,25,7.90
2017,02,17,05,26,7.90
2017,02,17,05,27,7.90
2017,02,17,05,28,7.90
2017,02,17,05,29,7.90
2017,02,17,05,30,7.80
2017,02,17,05,31,7.80
2017,02,17,05,32,7.80
2017,02,17,05,33,7.80
2017,02,17,05,34,7.80
2017,02,17,05,35,7.90
2017,02,17,05,36,7.90
2017,02,17,05,37,8.00
2017,02,17,05,38,8.00
2017,02,17,05,39,8.10
2017,02,17,05,40,8.20
2017,02,17,05,41,8.30
2017,02,17,05,42,8.30
2017,02,17,05,43,8.40
2017,02,17,05,44,8.40
2017,02,17,05,45,8.40
2017,02,17,05,46,8.40
2017,02,17,05,47,8.40
2017,02,17,05,48,8.40
2017,02,17,05,49,8.40
2017,02,17,05,50,8.40
2017,02,17,05,51,8.40
2017,02,17,05,52,8.40
2017,02,17,05,53,8.40
2017,02,17,05,54,8.50
2017,02,17,05,55,8.50
2017,02,17,05,56,8.40
2017,02,17,05,57,8.40
2017,02,17,05,58,8.40
2017,02,17,05,59,8.40
2017,02,17,06,00,8.40
2017,02,17,06,01,8.40
2017,02,17,06,02,8.40
2017,02,17,06,03,8.40
2017,02,17,06,04,8.40
2017,02,17,06,05,8.40
2017,02,17,06,06,8.40
2017,02,17,06,07,8.50
2017,02,17,06,08,8.50
2017,02,17,06,09,8.50
2017,02,17,06,10,8.60
2017,02,17,06,11,8.60
2017,02,17,06,12,8.70
2017,02,17,06,13,8.70
2017,02,17,06,14,8.80
2017,02,17,06,15,8.80
2017,02,17,06,16,8.90
2017,02,17,06,17,9.00
2017,02,17,06,18,9.00
2017,02,17,06,19,9.10
2017,02,17,06,20,9.10
2017,02,17,06,21,9.10
2017,02,17,06,22,9.10
2017,02,17,06,23,9.00
2017,02,17,06,24,9.00
2017,02,17,06,25,8.90
2017,02,17,06,26,8.90
2017,02,17,06,27,8.90
2017,02,17,06,28,8.80
2017,02,17,06,29,8.80
2017,02,17,06,30,8.80
2017,02,17,06,31,8.80
2017,02,17,06,32,8.90
2017,02,17,06,33,8.90
2017,02,17,06,34,8.80
2017,02,17,06,35,8.90
2017,02,17,06,36,8.80
2017,02,17,06,37,8.80
2017,02,17,06,38,8.80
2017,02,17,06,39,8.80
2017,02,17,06,40,8.70
2017,02,17,06,41,8.60
2017,02,17,06,42,8.50
2017,02,17,06,43,8.50
2017,02,17,06,44,8.40
2017,02,17,06,45,8.30
2017,02,17,06,46,8.30
2017,02,17,06,47,8.30
2017,02,17,06,48,8.30
2017,02,17,06,49,8.30
2017,02,17,06,50,8.30
2017,02,17,06,51,8.30
2017,02,17,06,52,8.40
2017,02,17,06,53,8.40
2017,02,17,06,54,8.40
2017,02,17,06,55,8.50
2017,02,17,06,56,8.50
2017,02,17,06,57,8.50
2017,02,17,06,58,8.60
2017,02,17,06,59,8.60
2017,02,17,07,00,8.60
2017,02,17,07,01,8.60
2017,02,17,07,02,8.70
2017,02,17,07,03,8.70
2017,02,17,07,04,8.70
2017,02,17,07,05,8.70
2017,02,17,07,06,8.70
2017,02,17,07,07,8.80
2017,02,17,07,08,8.80
2017,02,17,07,09,8.80
2017,02,17,07,10,8.90
2017,02,17,07,11,8.90
2017,02,17,07,12,8.90
2017,02,17,07,13,8.90
2017,02,17,07,14,8.90
2017,02,17,07,15,8.90
2017,02,17,07,16,8.90
2017,02,17,07,17,8.90
2017,02,17,07,18,8.90
2017,02,17,07,19,8.90
2017,02,17,07,20,8.90
2017,02,17,07,21,8.90
2017,02,17,07,22,8.90
2017,02,17,07,23,8.90
2017,02,17,07,24,8.90
2017,02,17,07,25,8.90
2017,02,17,07,26,8.90
2017,02,17,07,27,8.80
2017,02,17,07,28,8.80
2017,02,17,07,29,8.80
2017,02,17,07,30,8.80
2017,02,17,07,31,8.80
2017,02,17,07,32,8.80
2017,02,17,07,33,8.90
2017,02,17,07,34,8.90
2017,02,17,07,35,8.90
2017,02,17,07,36,8.90
2017,02,17,07,37,8.90
2017,02,17,07,38,8.90
2017,02,17,07,39,8.90
2017,02,17,07,40,8.90
2017,02,17,07,41,8.90
2017,02,17,07,42,8.90
2017,02,17,07,43,8.90
2017,02,17,07,44,8.90
2017,02,17,07,45,8.80
2017,02,17,07,46,8.80
2017,02,17,07,47,8.70
2017,02,17,07,48,8.70
2017,02,17,07,49,8.60
2017,02,17,07,50,8.60
2017,02,17,07,51,8.60
2017,02,17,07,52,8.50
2017,02,17,07,53,8.50
2017,02,17,07,54,8.50
2017,02,17,07,55,8.40
2017,02,17,07,56,8.50
2017,02,17,07,57,8.50
2017,02,17,07,58,8.50
2017,02,17,07,59,8.60
2017,02,17,08,00,8.60
2017,02,17,08,01,8.60
2017,02,17,08,02,8.60
2017,02,17,08,03,8.70
2017,02,17,08,04,8.70
2017,02,17,08,05,8.70
2017,02,17,08,06,8.70
2017,02,17,08,07,8.60
2017,02,17,08,08,8.70
2017,02,17,08,09,8.70
2017,02,17,08,10,8.70
2017,02,17,08,11,8.70
2017,02,17,08,12,8.70
2017,02,17,08,13,8.70
2017,02,17,08,14,8.70
2017,02,17,08,15,8.70
2017,02,17,08,16,8.70
2017,02,17,08,17,8.70
2017,02,17,08,18,8.70
2017,02,17,08,19,8.70
2017,02,17,08,20,8.70
2017,02,17,08,21,8.70
2017,02,17,08,22,8.70
2017,02,17,08,23,8.60
2017,02,17,08,24,8.60
2017,02,17,08,25,8.60
2017,02,17,08,26,8.60
2017,02,17,08,27,8.60
2017,02,17,08,28,8.60
2017,02,17,08,29,8.50
2017,02,17,08,30,8.50
2017,02,17,08,31,8.40
2017,02,17,08,32,8.40
2017,02,17,08,33,8.30
2017,02,17,08,34,8.30
2017,02,17,08,35,8.20
2017,02,17,08,36,8.20
2017,02,17,08,37,8.10
2017,02,17,08,38,8.10
2017,02,17,08,39,8.10
2017,02,17,08,40,8.00
2017,02,17,08,41,8.00
2017,02,17,08,42,8.00
2017,02,17,08,43,8.10
2017,02,17,08,44,8.10
2017,02,17,08,45,8.10
2017,02,17,08,46,8.10
2017,02,17,08,47,8.20
2017,02,17,08,48,8.20
2017,02,17,08,49,8.20
2017,02,17,08,50,8.30
2017,02,17,08,51,8.30
2017,02,17,08,52,8.30
2017,02,17,08,53,8.30
2017,02,17,08,54,8.30
2017,02,17,08,55,8.30
2017,02,17,08,56,8.40
2017,02,17,08,57,8.40
2017,02,17,08,58,8.40
2017,02,17,08,59,8.50
2017,02,17,09,00,8.50
2017,02,17,09,01,8.50
2017,02,17,09,02,8.50
2017,02,17,09,03,8.40
2017,02,17,09,04,8.40
2017,02,17,09,05,8.50
2017,02,17,09,06,8.50
2017,02,17,09,07,8.50
2017,02,17,09,08,8.50
2017,02,17,09,09,8.50
2017,02,17,09,10,8.60
2017,02,17,09,11,8.60
2017,02,17,09,12,8.60
2017,02,17,09,13,8.60
2017,02,17,09,14,8.60
2017,02,17,09,15,8.60
2017,02,17,09,16,8.70
2017,02,17,09,17,8.70
2017,02,17,09,18,8.70
2017,02,17,09,19,8.80
2017,02,17,09,20,8.80
2017,02,17,09,21,8.80
2017,02,17,09,22,8.80
2017,02,17,09,23,8.90
2017,02,17,09,24,8.90
2017,02,17,09,25,8.90
2017,02,17,09,26,8.90
2017,02,17,09,27,8.90
2017,02,17,09,28,8.90
2017,02,17,09,29,8.90
2017,02,17,09,30,8.90
2017,02,17,09,31,8.80
2017,02,17,09,32,8.80
2017,02,17,09,33,8.70
2017,02,17,09,34,8.70
2017,02,17,09,35,8.70
2017,02,17,09,36,8.60
2017,02,17,09,37,8.60
2017,02,17,09,38,8.50
2017,02,17,09,39,8.50
2017,02,17,09,40,8.40
2017,02,17,09,41,8.40
2017,02,17,09,42,8.30
2017,02,17,09,43,8.30
2017,02,17,09,44,8.30
2017,02,17,09,45,8.20
2017,02,17,09,46,8.20
2017,02,17,09,47,8.20
2017,02,17,09,48,8.20
2017,02,17,09,49,8.20
2017,02,17,09,50,8.20
2017,02,17,09,51,8.20
2017,02,17,09,52,8.20
2017,02,17,09,53,8.20
2017,02,17,09,54,8.20
2017,02,17,09,55,8.20
2017,02,17,09,56,8.10
2017,02,17,09,57,8.10
2017,02,17,09,58,8.10
2017,02,17,09,59,8.10
2017,02,17,10,00,8.10
2017,02,17,10,01,8.00
2017,02,17,10,02,8.00
2017,02,17,10,03,8.00
2017,02,17,10,04,7.90
2017,02,17,10,05,7.90
2017,02,17,10,06,7.90
2017,02,17,10,07,7.90
2017,02,17,10,08,7.80
2017,02,17,10,09,7.80
2017,02,17,10,10,7.80
2017,02,17,10,11,7.70
2017,02,17,10,12,7.70
2017,02,17,10,13,7.70
2017,02,17,10,14,7.60
2017,02,17,10,15,7.60
2017,02,17,10,16,7.60
2017,02,17,10,17,7.50
2017,02,17,10,18,7.40
2017,02,17,10,19,7.40
2017,02,17,10,20,7.40
2017,02,17,10,21,7.30
2017,02,17,10,22,7.30
2017,02,17,10,23,7.30
2017,02,17,10,24,7.30
2017,02,17,10,25,7.20
2017,02,17,10,26,7.20
2017,02,17,10,27,7.10
2017,02,17,10,28,7.10
2017,02,17,10,29,7.00
2017,02,17,10,30,6.90
2017,02,17,10,31,6.80
2017,02,17,10,32,6.70
2017,02,17,10,33,6.60
2017,02,17,10,34,6.50
2017,02,17,10,35,6.40
2017,02,17,10,36,6.30
2017,02,17,10,37,6.20
2017,02,17,10,38,6.20
2017,02,17,10,39,6.10
2017,02,17,10,40,6.00
2017,02,17,10,41,6.00
2017,02,17,10,42,5.90
2017,02,17,10,43,5.80
2017,02,17,10,44,5.80
2017,02,17,10,45,5.70
2017,02,17,10,46,5.70
2017,02,17,10,47,5.60
2017,02,17,10,48,5.60
2017,02,17,10,49,5.50
2017,02,17,10,50,5.50
2017,02,17,10,51,5.40
2017,02,17,10,52,5.40
2017,02,17,10,53,5.40
2017,02,17,10,54,5.30
2017,02,17,10,55,5.30
2017,02,17,10,56,5.30
2017,02,17,10,57,5.20
2017,02,17,10,58,5.20
2017,02,17,10,59,5.20
2017,02,17,11,00,5.10
2017,02,17,11,01,5.10
2017,02,17,11,02,5.10
2017,02,17,11,03,5.10
2017,02,17,11,04,5.10
2017,02,17,11,05,5.00
2017,02,17,11,06,5.00
2017,02,17,11,07,5.00
2017,02,17,11,08,4.90
2017,02,17,11,09,4.90
2017,02,17,11,10,4.90
2017,02,17,11,11,4.80
2017,02,17,11,12,4.80
2017,02,17,11,13,4.80
2017,02,17,11,14,4.80
2017,02,17,11,15,4.70
2017,02,17,11,16,4.70
2017,02,17,11,17,4.70
2017,02,17,11,18,4.60
2017,02,17,11,19,4.60
2017,02,17,11,20,4.50
2017,02,17,11,21,4.50
2017,02,17,11,22,4.50
2017,02,17,11,23,4.40
2017,02,17,11,24,4.40
2017,02,17,11,25,4.40
2017,02,17,11,26,4.30
2017,02,17,11,27,4.30
2017,02,17,11,28,4.30
2017,02,17,11,29,4.30
2017,02,17,11,30,4.20
2017,02,17,11,31,4.20
2017,02,17,11,32,4.20
2017,02,17,11,33,4.10
2017,02,17,11,34,4.10
2017,02,17,11,35,4.10
2017,02,17,11,36,4.00
2017,02,17,11,37,4.00
2017,02,17,11,38,3.90
2017,02,17,11,39,3.90
2017,02,17,11,40,3.80
2017,02,17,11,41,3.80
2017,02,17,11,42,3.70
2017,02,17,11,43,3.70
2017,02,17,11,44,3.60
2017,02,17,11,45,3.60
2017,02,17,11,46,3.50
2017,02,17,11,47,3.40
2017,02,17,11,48,3.40
2017,02,17,11,49,3.30
2017,02,17,11,50,3.30
2017,02,17,11,51,3.20
2017,02,17,11,52,3.20
2017,02,17,11,53,3.10
2017,02,17,11,54,3.10
2017,02,17,11,55,3.10
2017,02,17,11,56,3.00
2017,02,17,11,57,3.00
2017,02,17,11,58,3.00
2017,02,17,11,59,2.90
2017,02,17,12,00,2.90
2017,02,17,12,01,2.90
2017,02,17,12,02,2.90
2017,02,17,12,03,2.80
2017,02,17,12,04,2.80
2017,02,17,12,05,2.80
2017,02,17,12,06,2.80
2017,02,17,12,07,2.80
2017,02,17,12,08,2.70
2017,02,17,12,09,2.70
2017,02,17,12,10,2.70
2017,02,17,12,11,2.70
2017,02,17,12,12,2.70
2017,02,17,12,13,2.70
2017,02,17,12,14,2.70
2017,02,17,12,15,2.70
2017,02,17,12,16,2.70
2017,02,17,12,17,2.70
2017,02,17,12,18,2.60
2017,02,17,12,19,2.60
2017,02,17,12,20,2.60
2017,02,17,12,21,2.60
2017,02,17,12,22,2.60
2017,02,17,12,23,2.50
2017,02,17,12,24,2.50
2017,02,17,12,25,2.50
2017,02,17,12,26,2.40
2017,02,17,12,27,2.40
2017,02,17,12,28,2.40
2017,02,17,12,29,2.30
2017,02,17,12,30,2.30
2017,02,17,12,31,2.30
2017,02,17,12,32,2.30
2017,02,17,12,33,2.20
2017,02,17,12,34,2.20
2017,02,17,12,35,2.20
2017,02,17,12,36,2.20
2017,02,17,12,37,2.20
2017,02,17,12,38,2.20
2017,02,17,12,39,2.10
2017,02,17,12,40,2.10
2017,02,17,12,41,2.10
2017,02,17,12,42,2.10
2017,02,17,12,43,2.10
2017,02,17,12,44,2.10
2017,02,17,12,45,2.10
2017,02,17,12,46,2.10
2017,02,17,12,47,2.10
2017,02,17,12,48,2.10
2017,02,17,12,49,2.10
2017,02,17,12,50,2.10
2017,02,17,12,51,2.00
2017,02,17,12,52,2.00
2017,02,17,12,53,2.00
2017,02,17,12,54,1.90
2017,02,17,12,55,1.90
2017,02,17,12,56,1.90
2017,02,17,12,57,1.80
2017,02,17,12,58,1.80
2017,02,17,12,59,1.80
2017,02,17,13,00,1.70
2017,02,17,13,01,1.70
2017,02,17,13,02,1.60
2017,02,17,13,03,1.60
2017,02,17,13,04,1.60
2017,02,17,13,05,1.60
2017,02,17,13,06,1.60
2017,02,17,13,07,1.60
2017,02,17,13,08,1.60
2017,02,17,13,09,1.60
2017,02,17,13,10,1.60
2017,02,17,13,11,1.70
2017,02,17,13,12,1.70
2017,02,17,13,13,1.70
2017,02,17,13,14,1.70
2017,02,17,13,15,1.70
2017,02,17,13,16,1.70
2017,02,17,13,17,1.70
2017,02,17,13,18,1.70
2017,02,17,13,19,1.70
2017,02,17,13,20,1.70
2017,02,17,13,21,1.60
2017,02,17,13,22,1.70
2017,02,17,13,23,1.70
2017,02,17,13,24,1.70
2017,02,17,13,25,1.70
2017,02,17,13,26,1.70
2017,02,17,13,27,1.70
2017,02,17,13,28,1.70
2017,02,17,13,29,1.60
2017,02,17,13,30,1.60
2017,02,17,13,31,1.60
2017,02,17,13,32,1.60
2017,02,17,13,33,1.60
2017,02,17,13,34,1.60
2017,02,17,13,35,1.60
2017,02,17,13,36,1.60
2017,02,17,13,37,1.60
2017,02,17,13,38,1.60
2017,02,17,13,39,1.50
2017,02,17,13,40,1.50
2017,02,17,13,41,1.50
2017,02,17,13,42,1.50
2017,02,17,13,43,1.50
2017,02,17,13,44,1.50
2017,02,17,13,45,1.50
2017,02,17,13,46,1.50
2017,02,17,13,47,1.40
2017,02,17,13,48,1.40
2017,02,17,13,49,1.40
2017,02,17,13,50,1.40
2017,02,17,13,51,1.30
2017,02,17,13,52,1.30
2017,02,17,13,53,1.20
2017,02,17,13,54,1.10
2017,02,17,13,55,1.10
2017,02,17,13,56,1.00
2017,02,17,13,57,1.00
2017,02,17,13,58,0.90
2017,02,17,13,59,0.90
2017,02,17,14,00,0.80
2017,02,17,14,01,0.80
2017,02,17,14,02,0.80
2017,02,17,14,03,0.80
2017,02,17,14,04,0.80
2017,02,17,14,05,0.80
2017,02,17,14,06,0.80
2017,02,17,14,07,0.80
2017,02,17,14,08,0.80
2017,02,17,14,09,0.80
2017,02,17,14,10,0.80
2017,02,17,14,11,0.80
2017,02,17,14,12,0.80
2017,02,17,14,13,0.80
2017,02,17,14,14,0.80
2017,02,17,14,15,0.80
2017,02,17,14,16,0.80
2017,02,17,14,17,0.80
2017,02,17,14,18,0.80
2017,02,17,14,19,0.80
2017,02,17,14,20,0.80
2017,02,17,14,21,0.70
2017,02,17,14,22,0.70
2017,02,17,14,23,0.70
2017,02,17,14,24,0.70
2017,02,17,14,25,0.70
2017,02,17,14,26,0.70
2017,02,17,14,27,0.70
2017,02,17,14,28,0.70
2017,02,17,14,29,0.70
2017,02,17,14,30,0.80
2017,02,17,14,31,0.80
2017,02,17,14,32,0.90
2017,02,17,14,33,0.90
2017,02,17,14,34,1.00
2017,02,17,14,35,1.00
2017,02,17,14,36,1.10
2017,02,17,14,37,1.10
2017,02,17,14,38,1.20
2017,02,17,14,39,1.20
2017,02,17,14,40,1.30
2017,02,17,14,41,1.40
2017,02,17,14,42,1.40
2017,02,17,14,43,1.50
2017,02,17,14,44,1.60
2017,02,17,14,45,1.70
2017,02,17,14,46,1.80
2017,02,17,14,47,1.80
2017,02,17,14,48,1.90
2017,02,17,14,49,1.90
2017,02,17,14,50,2.00
2017,02,17,14,51,2.10
2017,02,17,14,52,2.10
2017,02,17,14,53,2.10
2017,02,17,14,54,2.10
2017,02,17,14,55,2.00
2017,02,17,14,56,2.00
2017,02,17,14,57,2.00
2017,02,17,14,58,2.00
2017,02,17,14,59,2.10
2017,02,17,15,00,2.10
2017,02,17,15,01,2.20
2017,02,17,15,02,2.30
2017,02,17,15,03,2.40
2017,02,17,15,04,2.60
2017,02,17,15,05,2.70
2017,02,17,15,06,2.80
2017,02,17,15,07,2.90
2017,02,17,15,08,3.00
2017,02,17,15,09,3.10
2017,02,17,15,10,3.20
2017,02,17,15,11,3.30
2017,02,17,15,12,3.30
2017,02,17,15,13,3.40
2017,02,17,15,14,3.50
2017,02,17,15,15,3.50
2017,02,17,15,16,3.60
2017,02,17,15,17,3.60
2017,02,17,15,18,3.70
2017,02,17,15,19,3.70
2017,02,17,15,20,3.80
2017,02,17,15,21,3.80
2017,02,17,15,22,3.80
2017,02,17,15,23,3.80
2017,02,17,15,24,3.90
2017,02,17,15,25,3.90
2017,02,17,15,26,3.90
2017,02,17,15,27,3.90
2017,02,17,15,28,3.90
2017,02,17,15,29,3.90
2017,02,17,15,30,3.90
2017,02,17,15,31,3.90
2017,02,17,15,32,4.00
2017,02,17,15,33,4.00
2017,02,17,15,34,4.00
2017,02,17,15,35,3.90
2017,02,17,15,36,3.90
2017,02,17,15,37,3.90
2017,02,17,15,38,3.80
2017,02,17,15,39,3.80
2017,02,17,15,40,3.70
2017,02,17,15,41,3.60
2017,02,17,15,42,3.50
2017,02,17,15,43,3.40
2017,02,17,15,44,3.30
2017,02,17,15,45,3.20
2017,02,17,15,46,3.20
2017,02,17,15,47,3.10
2017,02,17,15,48,3.10
2017,02,17,15,49,3.00
2017,02,17,15,50,3.00
2017,02,17,15,51,2.90
2017,02,17,15,52,2.80
2017,02,17,15,53,2.60
2017,02,17,15,54,2.40
2017,02,17,15,55,2.20
2017,02,17,15,56,1.90
2017,02,17,15,57,1.70
2017,02,17,15,58,1.60
2017,02,17,15,59,1.40
2017,02,17,16,00,1.20
2017,02,17,16,01,1.10
2017,02,17,16,02,1.00
2017,02,17,16,03,0.80
2017,02,17,16,04,0.70
2017,02,17,16,05,0.60
2017,02,17,16,06,0.60
2017,02,17,16,07,0.50
2017,02,17,16,08,0.40
2017,02,17,16,09,0.30
2017,02,17,16,10,0.30
2017,02,17,16,11,0.30
2017,02,17,16,12,0.20
2017,02,17,16,13,0.20
2017,02,17,16,14,0.10
2017,02,17,16,15,0.10
2017,02,17,16,16,0.10
2017,02,17,16,17,0.10
2017,02,17,16,18,0.00
2017,02,17,16,19,0.00
2017,02,17,16,20,0.00
2017,02,17,16,21,-0.10
2017,02,17,16,22,-0.10
2017,02,17,16,23,-0.10
2017,02,17,16,24,-0.20
2017,02,17,16,25,-0.20
2017,02,17,16,26,-0.20
2017,02,17,16,27,-0.20
2017,02,17,16,28,-0.20
2017,02,17,16,29,-0.20
2017,02,17,16,30,-0.20
2017,02,17,16,31,-0.20
2017,02,17,16,32,-0.20
2017,02,17,16,33,-0.10
2017,02,17,16,34,-0.10
2017,02,17,16,35,-0.10
2017,02,17,16,36,-0.10
2017,02,17,16,37,-0.20
2017,02,17,16,38,-0.20
2017,02,17,16,39,-0.20
2017,02,17,16,40,-0.20
2017,02,17,16,41,-0.20
2017,02,17,16,42,-0.30
2017,02,17,16,43,-0.30
2017,02,17,16,44,-0.30
2017,02,17,16,45,-0.30
2017,02,17,16,46,-0.40
2017,02,17,16,47,-0.40
2017,02,17,16,48,-0.40
2017,02,17,16,49,-0.40
2017,02,17,16,50,-0.50
2017,02,17,16,51,-0.50
2017,02,17,16,52,-0.50
2017,02,17,16,53,-0.50
2017,02,17,16,54,-0.50
2017,02,17,16,55,-0.50
2017,02,17,16,56,-0.50
2017,02,17,16,57,-0.50
2017,02,17,16,58,-0.50
2017,02,17,16,59,-0.50
2017,02,17,17,00,-0.50
2017,02,17,17,01,-0.50
2017,02,17,17,02,-0.60
2017,02,17,17,03,-0.60
2017,02,17,17,04,-0.60
2017,02,17,17,05,-0.60
2017,02,17,17,06,-0.60
2017,02,17,17,07,-0.60
2017,02,17,17,08,-0.70
2017,02,17,17,09,-0.70
2017,02,17,17,10,-0.70
2017,02,17,17,11,-0.70
2017,02,17,17,12,-0.70
2017,02,17,17,13,-0.70
2017,02,17,17,14,-0.70
2017,02,17,17,15,-0.80
2017,02,17,17,16,-0.80
2017,02,17,17,17,-0.80
2017,02,17,17,18,-0.80
2017,02,17,17,19,-0.80
2017,02,17,17,20,-0.80
2017,02,17,17,21,-0.80
2017,02,17,17,22,-0.80
2017,02,17,17,23,-0.80
2017,02,17,17,24,-0.80
2017,02,17,17,25,-0.90
2017,02,17,17,26,-0.80
2017,02,17,17,27,-0.90
2017,02,17,17,28,-0.90
2017,02,17,17,29,-0.90
2017,02,17,17,30,-0.80
2017,02,17,17,31,-0.80
2017,02,17,17,32,-0.80
2017,02,17,17,33,-0.80
2017,02,17,17,34,-0.80
2017,02,17,17,35,-0.80
2017,02,17,17,36,-0.80
2017,02,17,17,37,-0.80
2017,02,17,17,38,-0.80
2017,02,17,17,39,-0.80
2017,02,17,17,40,-0.90
2017,02,17,17,41,-0.90
2017,02,17,17,42,-0.90
2017,02,17,17,43,-0.90
2017,02,17,17,44,-0.90
2017,02,17,17,45,-1.00
2017,02,17,17,46,-1.00
2017,02,17,17,47,-1.00
2017,02,17,17,48,-1.10
2017,02,17,17,49,-1.10
2017,02,17,17,50,-1.10
2017,02,17,17,51,-1.10
2017,02,17,17,52,-1.10
2017,02,17,17,53,-1.10
2017,02,17,17,54,-1.10
2017,02,17,17,55,-1.10
2017,02,17,17,56,-1.10
2017,02,17,17,57,-1.10
2017,02,17,17,58,-1.10
2017,02,17,17,59,-1.10
2017,02,17,18,00,-1.10
2017,02,17,18,01,-1.10
2017,02,17,18,02,-1.10